Hillsboro, TX

5:05 AM CDT on May 21, 2018 (GMT -0500)
Hillsboro

Weather History for KINJ - June, 2013

Change the Weather History Date:

Monday, June 24, 2013

  Actual Average (KACT) Record (KACT)
Temperature  
Mean Temperature 84 °F -  
Max Temperature 95 °F 90 °F 106 °F (2009)
Min Temperature 73 °F 71 °F 63 °F (1974)
Cooling Degree Days 19    
Growing Degree Days 34 (Base 50)    
Moisture  
Dew Point 65 °F    
Average Humidity 55    
Maximum Humidity 88    
Minimum Humidity 32    
Precipitation  
Precipitation 0.00 in - - ()
Sea Level Pressure  
Sea Level Pressure 29.98 in    
Wind  
Wind Speed 12 mph (SSE)    
Max Wind Speed 17 mph    
Max Gust Speed 28 mph    
Visibility 10 miles    
Events      
Averages and records for this station are not official NWS values.
T = Trace of Precipitation, MM = Missing Value Source: NWS Daily Summary

Daily Weather History Graph

Daily Weather History Graph

Search for Another Location

Airport or City:

Astronomy

Jun. 24, 2013 Rise Set
Actual Time 6:23 AM CDT 8:38 PM CDT
Civil Twilight 5:55 AM CDT 9:06 PM CDT
Nautical Twilight 5:20 AM CDT 9:41 PM CDT
Astronomical Twilight 4:43 AM CDT 10:18 PM CDT
Moon 9:49 PM CDT (6/24) 7:46 AM CDT (6/24)
Length of Visible Light 15h 11m
Length of Day
14h 14m
Full, 98% of the Moon is Illuminated
Jun 24
Full
Jun 29
Last Quarter
Jul 8
New
Jul 15
First Quarter
Jul 22
Full

Hourly Weather History & Observations

Time (CDT) Temp. Heat Index Dew Point Humidity Pressure Visibility Wind Dir Wind Speed Gust Speed Precip Events Conditions
12:15 AM 80.6 °F 82.3 °F 64.4 °F 58% 29.96 in 10.0 mi SSE 11.5 mph - N/A   Clear
12:35 AM 80.6 °F 82.3 °F 64.4 °F 58% 29.97 in 10.0 mi SSE 10.4 mph - N/A   Clear
12:55 AM 80.6 °F 82.3 °F 64.4 °F 58% 29.98 in 10.0 mi SSE 10.4 mph - N/A   Clear
1:15 AM 80.6 °F 82.3 °F 64.4 °F 58% 29.98 in 10.0 mi SSE 9.2 mph - N/A   Clear
1:35 AM 78.8 °F - 64.4 °F 61% 29.98 in 10.0 mi SSE 9.2 mph - N/A   Clear
1:55 AM 78.8 °F - 64.4 °F 61% 29.98 in 10.0 mi SSE 10.4 mph - N/A   Clear
2:15 AM 78.8 °F - 64.4 °F 61% 29.99 in 10.0 mi SSE 11.5 mph - N/A   Clear
2:35 AM 78.8 °F - 64.4 °F 61% 29.99 in 10.0 mi SSE 11.5 mph - N/A   Clear
2:55 AM 77.0 °F - 64.4 °F 65% 29.99 in 10.0 mi SSE 12.7 mph - N/A   Clear
3:15 AM 77.0 °F - 64.4 °F 65% 29.99 in 10.0 mi SSE 12.7 mph - N/A   Clear
3:35 AM 77.0 °F - 64.4 °F 65% 29.99 in 10.0 mi SSE 10.4 mph - N/A   Clear
3:55 AM 77.0 °F - 66.2 °F 69% 29.99 in 10.0 mi SSE 12.7 mph - N/A   Clear
4:15 AM 75.2 °F - 66.2 °F 73% 30.00 in 10.0 mi SSE 9.2 mph - N/A   Clear
4:35 AM 73.4 °F - 68.0 °F 83% 30.00 in 10.0 mi SSE 9.2 mph - N/A   Clear
4:55 AM 73.4 °F - 68.0 °F 83% 30.00 in 10.0 mi SSE 9.2 mph - N/A   Clear
5:15 AM 73.4 °F - 68.0 °F 83% 30.00 in 10.0 mi SSE 9.2 mph - N/A   Clear
5:35 AM 73.4 °F - 68.0 °F 83% 30.01 in 7.0 mi SSE 10.4 mph - N/A   Scattered Clouds
5:55 AM 73.4 °F - 69.8 °F 88% 30.01 in 7.0 mi South 9.2 mph - N/A   Mostly Cloudy
6:15 AM 73.4 °F - 69.8 °F 88% 30.01 in 7.0 mi SSE 9.2 mph - N/A   Mostly Cloudy
6:35 AM 73.4 °F - 69.8 °F 88% 30.02 in 7.0 mi SSE 8.1 mph - N/A   Scattered Clouds
6:55 AM 73.4 °F - 69.8 °F 88% 30.02 in 7.0 mi SSE 9.2 mph - N/A   Mostly Cloudy
7:15 AM 75.2 °F - 69.8 °F 83% 30.02 in 7.0 mi SSE 8.1 mph - N/A   Scattered Clouds
7:35 AM 75.2 °F - 69.8 °F 83% 30.03 in 7.0 mi SSE 10.4 mph - N/A   Scattered Clouds
7:55 AM 77.0 °F - 69.8 °F 78% 30.04 in 7.0 mi South 13.8 mph - N/A   Scattered Clouds
8:15 AM 77.0 °F - 69.8 °F 78% 30.04 in 7.0 mi South 12.7 mph 17.3 mph N/A   Mostly Cloudy
8:35 AM 77.0 °F - 69.8 °F 78% 30.05 in 7.0 mi South 17.3 mph 27.6 mph N/A   Mostly Cloudy
8:55 AM 78.8 °F - 69.8 °F 74% 30.05 in 7.0 mi South 13.8 mph - N/A   Mostly Cloudy
9:15 AM 78.8 °F - 69.8 °F 74% 30.05 in 7.0 mi South 15.0 mph 21.9 mph N/A   Mostly Cloudy
9:35 AM 80.6 °F 83.9 °F 69.8 °F 70% 30.05 in 7.0 mi South 16.1 mph 19.6 mph N/A   Scattered Clouds
9:55 AM 82.4 °F 85.4 °F 68.0 °F 62% 30.05 in 10.0 mi South 15.0 mph - N/A   Scattered Clouds
10:15 AM 80.6 °F 83.2 °F 68.0 °F 65% 30.05 in 10.0 mi South 15.0 mph 19.6 mph N/A   Scattered Clouds
10:35 AM 82.4 °F 85.4 °F 68.0 °F 62% 30.05 in 10.0 mi South 13.8 mph 19.6 mph N/A   Scattered Clouds
10:55 AM 82.4 °F 85.4 °F 68.0 °F 62% 30.04 in 10.0 mi South 16.1 mph - N/A   Scattered Clouds
11:15 AM 86.0 °F 89.4 °F 68.0 °F 55% 30.04 in 10.0 mi South 15.0 mph - N/A   Clear
11:35 AM 87.8 °F 91.4 °F 68.0 °F 52% 30.04 in 10.0 mi South 16.1 mph 20.7 mph N/A   Clear
11:55 AM 87.8 °F 90.4 °F 66.2 °F 49% 30.04 in 10.0 mi South 16.1 mph 24.2 mph N/A   Clear
12:15 PM 87.8 °F 90.4 °F 66.2 °F 49% 30.04 in 10.0 mi South 17.3 mph 23.0 mph N/A   Clear
12:35 PM 89.6 °F 92.2 °F 66.2 °F 46% 30.03 in 10.0 mi South 15.0 mph 21.9 mph N/A   Clear
12:55 PM 89.6 °F 91.1 °F 64.4 °F 43% 30.03 in 10.0 mi South 11.5 mph 21.9 mph N/A   Clear
1:15 PM 89.6 °F 91.1 °F 64.4 °F 43% 30.02 in 10.0 mi South 17.3 mph 23.0 mph N/A   Clear
1:35 PM 89.6 °F 92.2 °F 66.2 °F 46% 30.01 in 10.0 mi SSE 15.0 mph 23.0 mph N/A   Scattered Clouds
1:55 PM 91.4 °F 93.2 °F 64.4 °F 41% 30.01 in 10.0 mi SSE 13.8 mph 19.6 mph N/A   Scattered Clouds
2:15 PM 91.4 °F 93.2 °F 64.4 °F 41% 30.00 in 10.0 mi South 15.0 mph 24.2 mph N/A   Scattered Clouds
2:35 PM 91.4 °F 92.1 °F 62.6 °F 38% 29.99 in 10.0 mi SSE 16.1 mph 23.0 mph N/A   Scattered Clouds
2:55 PM 93.2 °F 94.1 °F 62.6 °F 36% 29.98 in 10.0 mi SSE 16.1 mph 21.9 mph N/A   Scattered Clouds
3:15 PM 93.2 °F 94.1 °F 62.6 °F 36% 29.97 in 10.0 mi South 16.1 mph 23.0 mph N/A   Scattered Clouds
3:35 PM 95.0 °F 95.2 °F 60.8 °F 32% 29.96 in 10.0 mi South 16.1 mph 27.6 mph N/A   Clear
3:55 PM 95.0 °F 95.2 °F 60.8 °F 32% 29.95 in 10.0 mi SSE 16.1 mph 26.5 mph N/A   Clear
4:15 PM 95.0 °F 96.0 °F 62.6 °F 34% 29.95 in 10.0 mi South 15.0 mph 20.7 mph N/A   Clear
4:35 PM 95.0 °F 96.0 °F 62.6 °F 34% 29.94 in 10.0 mi South 12.7 mph 18.4 mph N/A   Scattered Clouds
4:55 PM 95.0 °F 95.2 °F 60.8 °F 32% 29.93 in 10.0 mi SSE 13.8 mph 26.5 mph N/A   Clear
5:15 PM 95.0 °F 95.2 °F 60.8 °F 32% 29.92 in 10.0 mi South 12.7 mph - N/A   Clear
5:35 PM 95.0 °F 95.2 °F 60.8 °F 32% 29.91 in 10.0 mi South 13.8 mph - N/A   Scattered Clouds
5:55 PM 95.0 °F 95.2 °F 60.8 °F 32% 29.91 in 10.0 mi South 15.0 mph 21.9 mph N/A   Clear
6:15 PM 95.0 °F 95.2 °F 60.8 °F 32% 29.91 in 10.0 mi SSE 16.1 mph 19.6 mph N/A   Clear
6:35 PM 95.0 °F 95.2 °F 60.8 °F 32% 29.90 in 10.0 mi SSE 13.8 mph 17.3 mph N/A   Clear
6:55 PM 95.0 °F 95.2 °F 60.8 °F 32% 29.90 in 10.0 mi SSE 13.8 mph - N/A   Clear
7:15 PM 93.2 °F 93.3 °F 60.8 °F 34% 29.90 in 10.0 mi South 12.7 mph 17.3 mph N/A   Clear
7:35 PM 93.2 °F 93.3 °F 60.8 °F 34% 29.90 in 10.0 mi SE 12.7 mph - N/A   Clear
7:55 PM 91.4 °F 91.4 °F 60.8 °F 36% 29.91 in 10.0 mi SE 12.7 mph 16.1 mph N/A   Scattered Clouds
8:15 PM 91.4 °F 92.1 °F 62.6 °F 38% 29.91 in 10.0 mi SE 12.7 mph 20.7 mph N/A   Scattered Clouds
8:35 PM 89.6 °F 90.1 °F 62.6 °F 40% 29.91 in 10.0 mi SE 12.7 mph - N/A   Clear
8:55 PM 89.6 °F 90.1 °F 62.6 °F 40% 29.91 in 10.0 mi SE 12.7 mph - N/A   Clear
9:15 PM 87.8 °F 88.5 °F 62.6 °F 43% 29.91 in 10.0 mi SE 12.7 mph - N/A   Clear
9:35 PM 87.8 °F 88.5 °F 62.6 °F 43% 29.91 in 10.0 mi SE 10.4 mph - N/A   Clear
9:55 PM 87.8 °F 88.5 °F 62.6 °F 43% 29.92 in 10.0 mi SE 12.7 mph - N/A   Clear
10:15 PM 86.0 °F 86.6 °F 62.6 °F 45% 29.93 in 10.0 mi SE 11.5 mph - N/A   Clear
10:35 PM 86.0 °F 86.6 °F 62.6 °F 45% 29.93 in 10.0 mi SE 12.7 mph - N/A   Scattered Clouds
10:55 PM 86.0 °F 86.6 °F 62.6 °F 45% 29.95 in 10.0 mi SE 11.5 mph - N/A   Clear
11:15 PM 86.0 °F 86.6 °F 62.6 °F 45% 29.95 in 10.0 mi SE 10.4 mph - N/A   Clear
11:35 PM 84.2 °F 85.0 °F 62.6 °F 48% 29.96 in 10.0 mi SSE 12.7 mph - N/A   Clear
11:55 PM 82.4 °F 83.4 °F 62.6 °F 51% 29.97 in 10.0 mi SSE 15.0 mph - N/A   Clear